| time (UTC) | temp F | wind direction | speed MPH | gust MPH | rain 1hr in | rain 24hr in | rain mn in | humidity % | barometer mb |
| 20260507043051 | 44 | 0.0 | 0.0 | 0.00 | 0.58 | 0.00 | 96 | 987.4 | |
| 20260507042335 | 44 | 0.0 | 0.0 | 0.00 | 0.58 | 0.00 | 95 | 987.4 | |
| 20260507041845 | 45 | 0.0 | 0.0 | 0.00 | 0.58 | 0.00 | 95 | 987.5 | |
| 20260507040820 | 45 | 0.0 | 2.0 | 0.00 | 0.58 | 0.00 | 95 | 987.7 | |
| 20260507040427 | 45 | 270 | 3.0 | 4.0 | 0.00 | 0.58 | 0.00 | 96 | 987.6 |
| 20260507035919 | 45 | 0.0 | 2.0 | 0.00 | 0.58 | 0.58 | 96 | 987.6 | |
| 20260507034919 | 45 | 293 | 1.0 | 2.0 | 0.01 | 0.58 | 0.58 | 95 | 987.5 |
| 20260507033919 | 45 | 293 | 3.0 | 5.0 | 0.01 | 0.58 | 0.58 | 95 | 987.4 |
| 20260507031945 | 46 | 315 | 3.0 | 4.0 | 0.03 | 0.58 | 0.58 | 95 | 987.6 |
| 20260507031729 | 46 | 315 | 2.0 | 5.0 | 0.03 | 0.58 | 0.58 | 95 | 987.6 |
| 20260507031431 | 46 | 0.0 | 0.0 | 0.03 | 0.58 | 0.58 | 95 | 987.6 | |
| 20260507030713 | 46 | 0.0 | 3.0 | 0.03 | 0.58 | 0.58 | 95 | 987.6 | |
| 20260507030709 | 46 | 315 | 1.0 | 4.0 | 0.04 | 0.57 | 0.57 | 95 | 987.5 |
| 20260507023816 | 47 | 0.0 | 0.0 | 0.03 | 0.56 | 0.56 | 95 | 987.6 | |
| 20260507023621 | 47 | 0.0 | 0.0 | 0.03 | 0.56 | 0.56 | 95 | 987.7 | |
| 20260507022618 | 47 | 0.0 | 0.0 | 0.03 | 0.56 | 0.56 | 95 | 987.7 | |
| 20260507021619 | 47 | 0.0 | 2.0 | 0.02 | 0.55 | 0.55 | 95 | 987.7 | |
| 20260507020620 | 47 | 0.0 | 0.0 | 0.03 | 0.55 | 0.55 | 95 | 987.7 | |
| 20260507015620 | 47 | 0.0 | 1.0 | 0.02 | 0.54 | 0.54 | 95 | 987.6 | |
| 20260507014620 | 48 | 0.0 | 0.0 | 0.01 | 0.53 | 0.53 | 95 | 987.4 | |
| 20260507013619 | 48 | 293 | 2.0 | 4.0 | 0.01 | 0.53 | 0.53 | 95 | 987.5 |
| 20260507012618 | 49 | 315 | 1.0 | 3.0 | 0.01 | 0.53 | 0.53 | 95 | 987.3 |
| 20260507011620 | 49 | 0.0 | 1.0 | 0.01 | 0.53 | 0.53 | 95 | 987.0 | |
| 20260507010619 | 50 | 23 | 2.0 | 4.0 | 0.00 | 0.52 | 0.52 | 95 | 986.9 |
| 20260507005620 | 51 | 0.0 | 2.0 | 0.00 | 0.52 | 0.52 | 95 | 986.7 | |
| 20260507004618 | 51 | 0 | 1.0 | 5.0 | 0.01 | 0.52 | 0.52 | 94 | 986.3 |
| 20260507003619 | 52 | 0.0 | 2.0 | 0.01 | 0.52 | 0.52 | 95 | 986.3 | |
| 20260507002618 | 53 | 0.0 | 2.0 | 0.02 | 0.52 | 0.52 | 95 | 986.3 | |
| 20260507001619 | 53 | 315 | 2.0 | 4.0 | 0.03 | 0.52 | 0.52 | 95 | 985.8 |
| 20260507000618 | 53 | 0.0 | 0.0 | 0.09 | 0.52 | 0.52 | 95 | 985.7 | |
| 20260506235619 | 54 | 0.0 | 1.0 | 0.15 | 0.52 | 0.52 | 94 | 985.5 | |
| 20260506234620 | 54 | 315 | 3.0 | 5.0 | 0.14 | 0.51 | 0.51 | 94 | 985.4 |
| 20260506233618 | 56 | 0.0 | 1.0 | 0.14 | 0.51 | 0.51 | 94 | 985.2 | |
| 20260506232618 | 57 | 315 | 3.0 | 8.0 | 0.13 | 0.50 | 0.50 | 95 | 984.9 |
| 20260506231618 | 58 | 293 | 5.0 | 7.0 | 0.12 | 0.49 | 0.49 | 95 | 984.8 |
| 20260506230619 | 58 | 248 | 5.0 | 8.0 | 0.08 | 0.43 | 0.43 | 95 | 984.5 |
| 20260506225618 | 58 | 225 | 4.0 | 8.0 | 0.05 | 0.37 | 0.37 | 95 | 984.3 |
| 20260506224620 | 58 | 225 | 1.0 | 2.0 | 0.05 | 0.37 | 0.37 | 95 | 984.3 |
| 20260506223633 | 58 | 225 | 4.0 | 7.0 | 0.05 | 0.37 | 0.37 | 94 | 984.3 |
| 20260506223551 | 58 | 225 | 4.0 | 8.0 | 0.05 | 0.37 | 0.37 | 94 | 984.4 |
| 20260506222524 | 58 | 203 | 1.0 | 5.0 | 0.05 | 0.37 | 0.37 | 94 | 984.4 |
| 20260506221628 | 58 | 225 | 5.0 | 11.0 | 0.05 | 0.37 | 0.37 | 94 | 984.3 |
| 20260506220618 | 58 | 180 | 4.0 | 12.0 | 0.03 | 0.35 | 0.35 | 94 | 984.3 |
| 20260506215618 | 58 | 225 | 7.0 | 11.0 | 0.00 | 0.32 | 0.32 | 94 | 984.1 |
| 20260506214618 | 58 | 225 | 12.0 | 18.0 | 0.00 | 0.32 | 0.32 | 94 | 984.0 |
| 20260506213620 | 58 | 248 | 6.0 | 14.0 | 0.01 | 0.32 | 0.32 | 94 | 984.1 |
| 20260506212618 | 58 | 203 | 9.0 | 17.0 | 0.01 | 0.32 | 0.32 | 94 | 984.3 |
| 20260506211738 | 59 | 248 | 9.0 | 17.0 | 0.01 | 0.32 | 0.32 | 94 | 984.3 |
| 20260506205921 | 59 | 158 | 7.0 | 12.0 | 0.01 | 0.32 | 0.32 | 94 | 984.2 |
| 20260506204921 | 59 | 225 | 4.0 | 8.0 | 0.01 | 0.32 | 0.32 | 93 | 984.3 |
| 20260506203919 | 59 | 203 | 8.0 | 15.0 | 0.00 | 0.31 | 0.31 | 93 | 984.2 |
| 20260506202918 | 59 | 225 | 11.0 | 15.0 | 0.01 | 0.31 | 0.31 | 93 | 984.3 |
| 20260506201918 | 59 | 203 | 7.0 | 13.0 | 0.01 | 0.31 | 0.31 | 93 | 984.4 |
| 20260506200918 | 59 | 158 | 6.0 | 18.0 | 0.01 | 0.31 | 0.31 | 93 | 984.4 |
| 20260506195918 | 59 | 180 | 9.0 | 17.0 | 0.02 | 0.31 | 0.31 | 93 | 984.4 |
| 20260506194933 | 60 | 225 | 7.0 | 12.0 | 0.03 | 0.31 | 0.31 | 94 | 984.6 |
| 20260506193923 | 59 | 180 | 3.0 | 7.0 | 0.07 | 0.31 | 0.31 | 94 | 984.6 |
| 20260506193033 | 60 | 203 | 4.0 | 10.0 | 0.11 | 0.30 | 0.30 | 94 | 984.6 |
| 20260506192825 | 60 | 203 | 4.0 | 12.0 | 0.11 | 0.30 | 0.30 | 94 | 984.8 |
| 20260506191920 | 60 | 180 | 6.0 | 11.0 | 0.13 | 0.30 | 0.30 | 94 | 984.8 |
| 20260506190920 | 60 | 203 | 4.0 | 10.0 | 0.14 | 0.30 | 0.30 | 94 | 984.8 |
| 20260506185919 | 59 | 225 | 2.0 | 4.0 | 0.14 | 0.29 | 0.29 | 94 | 984.8 |
| 20260506184920 | 59 | 158 | 6.0 | 11.0 | 0.14 | 0.28 | 0.28 | 94 | 985.1 |
| 20260506183919 | 59 | 203 | 3.0 | 5.0 | 0.11 | 0.24 | 0.24 | 94 | 985.4 |
| 20260506182918 | 59 | 225 | 5.0 | 9.0 | 0.08 | 0.19 | 0.19 | 93 | 985.3 |
| 20260506181927 | 59 | 203 | 7.0 | 16.0 | 0.09 | 0.17 | 0.17 | 93 | 985.5 |
| 20260506180922 | 59 | 203 | 4.0 | 10.0 | 0.09 | 0.16 | 0.16 | 93 | 985.6 |
| 20260506175919 | 59 | 225 | 9.0 | 19.0 | 0.10 | 0.15 | 0.15 | 93 | 985.9 |
| 20260506174920 | 59 | 225 | 9.0 | 16.0 | 0.10 | 0.14 | 0.14 | 93 | 986.3 |
| 20260506173920 | 59 | 225 | 4.0 | 10.0 | 0.11 | 0.13 | 0.13 | 93 | 986.5 |
| 20260506172921 | 59 | 225 | 6.0 | 11.0 | 0.10 | 0.11 | 0.11 | 92 | 986.7 |
| 20260506171920 | 59 | 203 | 6.0 | 11.0 | 0.07 | 0.08 | 0.08 | 92 | 986.8 |
| 20260506170948 | 59 | 203 | 4.0 | 11.0 | 0.07 | 0.07 | 0.07 | 92 | 986.7 |
| 20260506170445 | 59 | 203 | 6.0 | 12.0 | 0.05 | 0.05 | 0.05 | 91 | 986.7 |
| 20260506170126 | 59 | 225 | 1.0 | 4.0 | 0.05 | 0.05 | 0.05 | 91 | 986.6 |
| 20260506165849 | 59 | 225 | 6.0 | 9.0 | 0.05 | 0.05 | 0.05 | 91 | 986.6 |
| 20260506165350 | 60 | 225 | 2.0 | 6.0 | 0.04 | 0.04 | 0.04 | 90 | 986.6 |
| 20260506165157 | 60 | 180 | 5.0 | 9.0 | 0.04 | 0.04 | 0.04 | 90 | 986.6 |
| 20260506164912 | 60 | 225 | 7.0 | 11.0 | 0.03 | 0.03 | 0.03 | 90 | 986.6 |
| 20260506163719 | 60 | 248 | 3.0 | 9.0 | 0.02 | 0.02 | 0.02 | 89 | 986.8 |
| 20260506162720 | 60 | 225 | 2.0 | 5.0 | 0.01 | 0.01 | 0.01 | 88 | 986.9 |
| 20260506161719 | 61 | 225 | 1.0 | 2.0 | 0.00 | 0.00 | 0.00 | 86 | 987.0 |
| 20260506160720 | 61 | 203 | 8.0 | 14.0 | 0.00 | 0.00 | 0.00 | 85 | 986.9 |
| 20260506155910 | 61 | 225 | 3.0 | 7.0 | 0.00 | 0.00 | 0.00 | 85 | 987.1 |
| 20260506154719 | 61 | 180 | 4.0 | 11.0 | 0.00 | 0.00 | 0.00 | 85 | 987.3 |
| 20260506153817 | 60 | 225 | 7.0 | 10.0 | 0.00 | 0.00 | 0.00 | 84 | 987.5 |
| 20260506153437 | 60 | 225 | 6.0 | 9.0 | 0.00 | 0.00 | 0.00 | 85 | 987.5 |
| 20260506153246 | 60 | 225 | 2.0 | 4.0 | 0.00 | 0.00 | 0.00 | 86 | 987.5 |
| 20260506152628 | 60 | 225 | 3.0 | 5.0 | 0.00 | 0.00 | 0.00 | 85 | 987.6 |
| 20260506151714 | 60 | 225 | 4.0 | 9.0 | 0.00 | 0.00 | 0.00 | 83 | 987.9 |
| 20260506150922 | 61 | 225 | 5.0 | 9.0 | 0.00 | 0.00 | 0.00 | 82 | 988.1 |
| 20260506145920 | 61 | 203 | 4.0 | 7.0 | 0.00 | 0.00 | 0.00 | 81 | 988.1 |
| 20260506144922 | 61 | 225 | 6.0 | 12.0 | 0.00 | 0.00 | 0.00 | 80 | 988.1 |
| 20260506143921 | 61 | 225 | 1.0 | 3.0 | 0.00 | 0.00 | 0.00 | 80 | 988.0 |
| 20260506142920 | 61 | 225 | 2.0 | 4.0 | 0.00 | 0.00 | 0.00 | 80 | 987.8 |
| 20260506141919 | 61 | 225 | 4.0 | 10.0 | 0.00 | 0.00 | 0.00 | 80 | 987.8 |
| 20260506140918 | 61 | 203 | 1.0 | 5.0 | 0.00 | 0.00 | 0.00 | 81 | 987.9 |
| 20260506135920 | 60 | 293 | 1.0 | 5.0 | 0.00 | 0.00 | 0.00 | 82 | 987.8 |
| 20260506134922 | 60 | 203 | 6.0 | 12.0 | 0.00 | 0.00 | 0.00 | 83 | 987.8 |
| 20260506133919 | 59 | 158 | 2.0 | 9.0 | 0.00 | 0.00 | 0.00 | 84 | 987.9 |
| 20260506132919 | 59 | 0.0 | 2.0 | 0.00 | 0.00 | 0.00 | 84 | 987.8 | |
| 20260506131919 | 58 | 225 | 3.0 | 6.0 | 0.00 | 0.00 | 0.00 | 84 | 987.9 |
| 20260506130919 | 58 | 225 | 6.0 | 11.0 | 0.00 | 0.00 | 0.00 | 84 | 988.2 |
| 20260506125920 | 58 | 180 | 6.0 | 10.0 | 0.00 | 0.00 | 0.00 | 84 | 988.4 |
| 20260506124922 | 58 | 248 | 2.0 | 8.0 | 0.00 | 0.00 | 0.00 | 85 | 988.4 |
| 20260506124026 | 58 | 225 | 5.0 | 6.0 | 0.00 | 0.00 | 0.00 | 85 | 988.6 |
| 20260506123419 | 58 | 225 | 9.0 | 14.0 | 0.00 | 0.00 | 0.00 | 85 | 988.4 |
| 20260506122419 | 57 | 248 | 4.0 | 9.0 | 0.00 | 0.00 | 0.00 | 85 | 988.1 |
| 20260506121419 | 57 | 203 | 3.0 | 5.0 | 0.00 | 0.00 | 0.00 | 85 | 988.0 |
| 20260506120419 | 57 | 180 | 1.0 | 4.0 | 0.00 | 0.00 | 0.00 | 85 | 988.0 |
| 20260506115419 | 57 | 180 | 4.0 | 7.0 | 0.00 | 0.00 | 0.00 | 85 | 988.1 |
| 20260506114419 | 57 | 0.0 | 0.0 | 0.00 | 0.00 | 0.00 | 85 | 988.4 | |
| 20260506113425 | 57 | 203 | 4.0 | 6.0 | 0.00 | 0.00 | 0.00 | 85 | 988.5 |
| 20260506112524 | 57 | 225 | 1.0 | 4.0 | 0.00 | 0.00 | 0.00 | 85 | 988.2 |
| 20260506112334 | 57 | 225 | 1.0 | 2.0 | 0.00 | 0.00 | 0.00 | 85 | 988.3 |
| 20260506112034 | 57 | 203 | 2.0 | 5.0 | 0.00 | 0.00 | 0.00 | 85 | 988.2 |
| 20260506111834 | 57 | 203 | 2.0 | 5.0 | 0.00 | 0.00 | 0.00 | 85 | 988.2 |
| 20260506111131 | 57 | 225 | 4.0 | 5.0 | 0.00 | 0.00 | 0.00 | 85 | 988.2 |
| 20260506110042 | 56 | 248 | 3.0 | 7.0 | 0.00 | 0.00 | 0.00 | 85 | 988.4 |
| 20260506105420 | 56 | 225 | 1.0 | 4.0 | 0.00 | 0.00 | 0.00 | 85 | 988.3 |
| 20260506104421 | 56 | 225 | 3.0 | 6.0 | 0.00 | 0.00 | 0.00 | 85 | 988.3 |
| 20260506103419 | 56 | 203 | 1.0 | 7.0 | 0.00 | 0.00 | 0.00 | 85 | 988.2 |
| 20260506102525 | 56 | 203 | 3.0 | 5.0 | 0.00 | 0.00 | 0.00 | 84 | 988.2 |
| 20260506101851 | 56 | 225 | 1.0 | 3.0 | 0.00 | 0.00 | 0.00 | 84 | 988.3 |
| 20260506101348 | 56 | 225 | 2.0 | 5.0 | 0.00 | 0.00 | 0.00 | 83 | 988.3 |
| 20260506101137 | 56 | 225 | 2.0 | 4.0 | 0.00 | 0.00 | 0.00 | 83 | 988.4 |
| 20260506100850 | 56 | 225 | 1.0 | 4.0 | 0.00 | 0.00 | 0.00 | 82 | 988.4 |
| 20260506100432 | 56 | 0.0 | 1.0 | 0.00 | 0.00 | 0.00 | 82 | 988.3 | |
| 20260506100232 | 56 | 225 | 1.0 | 4.0 | 0.00 | 0.00 | 0.00 | 82 | 988.3 |
| 20260506095833 | 56 | 225 | 1.0 | 3.0 | 0.00 | 0.00 | 0.00 | 82 | 988.4 |
| 20260506094930 | 56 | 225 | 1.0 | 3.0 | 0.00 | 0.00 | 0.00 | 82 | 988.4 |
| 20260506094519 | 56 | 0.0 | 0.0 | 0.00 | 0.00 | 0.00 | 82 | 988.2 | |
| 20260506093519 | 57 | 225 | 1.0 | 3.0 | 0.00 | 0.00 | 0.00 | 82 | 988.4 |
| 20260506092519 | 57 | 225 | 4.0 | 7.0 | 0.00 | 0.00 | 0.00 | 81 | 988.7 |
| 20260506091521 | 57 | 225 | 2.0 | 5.0 | 0.00 | 0.00 | 0.00 | 81 | 988.7 |
| 20260506090519 | 57 | 225 | 2.0 | 6.0 | 0.00 | 0.00 | 0.00 | 81 | 988.6 |
| 20260506085520 | 57 | 203 | 1.0 | 4.0 | 0.00 | 0.00 | 0.00 | 80 | 988.7 |
| 20260506084523 | 57 | 225 | 2.0 | 4.0 | 0.00 | 0.00 | 0.00 | 80 | 988.9 |
| 20260506083519 | 57 | 225 | 3.0 | 4.0 | 0.00 | 0.00 | 0.00 | 80 | 989.0 |
| 20260506082527 | 58 | 225 | 1.0 | 3.0 | 0.00 | 0.00 | 0.00 | 79 | 988.9 |
| 20260506081519 | 58 | 225 | 3.0 | 7.0 | 0.00 | 0.00 | 0.00 | 79 | 989.1 |
| 20260506080519 | 58 | 180 | 1.0 | 3.0 | 0.00 | 0.00 | 0.00 | 78 | 989.2 |
| 20260506073519 | 58 | 180 | 1.0 | 6.0 | 0.00 | 0.00 | 0.00 | 77 | 989.3 |
| 20260506072524 | 58 | 225 | 3.0 | 8.0 | 0.00 | 0.00 | 0.00 | 77 | 989.2 |
| 20260506071526 | 58 | 203 | 3.0 | 5.0 | 0.00 | 0.00 | 0.00 | 77 | 989.1 |
| 20260506070519 | 59 | 225 | 2.0 | 4.0 | 0.00 | 0.00 | 0.00 | 76 | 989.3 |
| 20260506061519 | 60 | 248 | 4.0 | 5.0 | 0.00 | 0.00 | 0.00 | 74 | 989.4 |
| 20260506060540 | 60 | 158 | 2.0 | 9.0 | 0.00 | 0.00 | 0.00 | 74 | 989.4 |
| 20260506060419 | 60 | 225 | 1.0 | 3.0 | 0.00 | 0.00 | 0.00 | 74 | 989.3 |
| 20260506050421 | 62 | 225 | 3.0 | 5.0 | 0.00 | 0.00 | 0.00 | 72 | 989.4 |
| 20260506044524 | 62 | 225 | 7.0 | 12.0 | 0.00 | 0.00 | 0.00 | 72 | 989.5 |
| 20260506043618 | 62 | 225 | 4.0 | 9.0 | 0.00 | 0.00 | 0.00 | 73 | 989.2 |